Souda — SVBH5 — position and weather

sailwx.info

Track history (hours):
 
Tides and Currents Weather Stations Pressure Air Temp Water Temp Dewpoint Dewpoint Depression Visibility Wind Speed Wind Dir Waves Ship Positions

Souda

Last reported at 2014-Oct-25 05:31 UTC. Time now 2014-Oct-26 08:34 UTC.
Position N 37°23' E 023°27'.

Length 88 m; draft 5.7 m.

Type: Tanker. MMSI: 241109000.

Date/timePositionNaut miles runAvg speedWind from/ knotsBaromVisibWave heightAir tempDewpointWater temp
2014-Oct-25 05:31N 37°23' E 023°27'18 0.6
2014-Oct-24 02:32N 37°36' E 023°41'7 7.6
2014-Oct-24 01:33N 37°43' E 023°40'7 7.4
2014-Oct-24 00:33N 37°49' E 023°35'8 8.2
2014-Oct-23 23:33N 37°51' E 023°25'12 0.5
2014-Oct-22 23:29N 37°53' E 023°10'8 8.8
2014-Oct-22 22:33N 37°52' E 023°20'9 8.8
2014-Oct-22 21:33N 37°50' E 023°31'8 7.6
2014-Oct-22 20:33N 37°48' E 023°40'9 8.8
2014-Oct-22 19:32N 37°40' E 023°45'48 8.8
2014-Oct-22 14:05N 36°53' E 023°56'5 8.9
2014-Oct-22 13:33N 36°49' E 023°57'9 9.4
2014-Oct-22 12:33N 36°40' E 023°60'3 0.1
2014-Oct-20 13:33N 36°43' E 023°59'8 8.4
2014-Oct-20 12:33N 36°51' E 023°57'11 8.7
2014-Oct-20 11:19N 37°01' E 023°54'31 1.3
2014-Oct-19 11:26N 37°30' E 023°41'8 7.4
2014-Oct-19 10:24N 37°37' E 023°43'7 8.3
2014-Oct-19 09:33N 37°44' E 023°40'7 7.3
2014-Oct-19 08:33N 37°50' E 023°34'8 7.7
2014-Oct-19 07:33N 37°51' E 023°25'11 8.0
2014-Oct-19 06:12N 37°53' E 023°11'5 7.9
2014-Oct-19 05:33N 37°55' E 023°06'0 0.0
2014-Oct-18 23:33N 37°55' E 023°05'0 0.0
2014-Oct-18 22:31N 37°55' E 023°05'0 0.0
2014-Oct-18 21:28N 37°55' E 023°05'0 0.0
2014-Oct-18 14:33N 37°55' E 023°05'6 6.2
2014-Oct-18 13:32N 37°53' E 023°13'8 7.9
2014-Oct-18 12:33N 37°51' E 023°22'8 8.0
2014-Oct-18 11:33N 37°49' E 023°32'7 7.3
2014-Oct-18 10:33N 37°47' E 023°41'8 7.6
2014-Oct-18 09:33N 37°40' E 023°46'8 8.1
2014-Oct-18 08:33N 37°37' E 023°55'24 7.7
2014-Oct-18 05:24N 37°47' E 024°23'184 4.6
2014-Oct-16 13:21N 40°38' E 022°53'  
Track history (hours):
 
Tides and Currents Weather Stations Pressure Air Temp Water Temp Dewpoint Dewpoint Depression Visibility Wind Speed Wind Dir Waves Ship Positions

Souda

Last reported at 2014-Oct-25 05:31 UTC. Time now 2014-Oct-26 08:34 UTC.
Position N 37°23' E 023°27'.

Length 88 m; draft 5.7 m.

Type: Tanker. MMSI: 241109000.

Date/timePositionNaut miles runAvg speedWind from/ knotsBaromVisibWave heightAir tempDewpointWater temp
2014-Oct-25 05:31N 37°23' E 023°27'18 0.6
2014-Oct-24 02:32N 37°36' E 023°41'7 7.6
2014-Oct-24 01:33N 37°43' E 023°40'7 7.4
2014-Oct-24 00:33N 37°49' E 023°35'8 8.2
2014-Oct-23 23:33N 37°51' E 023°25'12 0.5
2014-Oct-22 23:29N 37°53' E 023°10'8 8.8
2014-Oct-22 22:33N 37°52' E 023°20'9 8.8
2014-Oct-22 21:33N 37°50' E 023°31'8 7.6
2014-Oct-22 20:33N 37°48' E 023°40'9 8.8
2014-Oct-22 19:32N 37°40' E 023°45'48 8.8
2014-Oct-22 14:05N 36°53' E 023°56'5 8.9
2014-Oct-22 13:33N 36°49' E 023°57'9 9.4
2014-Oct-22 12:33N 36°40' E 023°60'3 0.1
2014-Oct-20 13:33N 36°43' E 023°59'8 8.4
2014-Oct-20 12:33N 36°51' E 023°57'11 8.7
2014-Oct-20 11:19N 37°01' E 023°54'31 1.3
2014-Oct-19 11:26N 37°30' E 023°41'8 7.4
2014-Oct-19 10:24N 37°37' E 023°43'7 8.3
2014-Oct-19 09:33N 37°44' E 023°40'7 7.3
2014-Oct-19 08:33N 37°50' E 023°34'8 7.7
2014-Oct-19 07:33N 37°51' E 023°25'11 8.0
2014-Oct-19 06:12N 37°53' E 023°11'5 7.9
2014-Oct-19 05:33N 37°55' E 023°06'0 0.0
2014-Oct-18 23:33N 37°55' E 023°05'0 0.0
2014-Oct-18 22:31N 37°55' E 023°05'0 0.0
2014-Oct-18 21:28N 37°55' E 023°05'0 0.0
2014-Oct-18 14:33N 37°55' E 023°05'6 6.2
2014-Oct-18 13:32N 37°53' E 023°13'8 7.9
2014-Oct-18 12:33N 37°51' E 023°22'8 8.0
2014-Oct-18 11:33N 37°49' E 023°32'7 7.3
2014-Oct-18 10:33N 37°47' E 023°41'8 7.6
2014-Oct-18 09:33N 37°40' E 023°46'8 8.1
2014-Oct-18 08:33N 37°37' E 023°55'24 7.7
2014-Oct-18 05:24N 37°47' E 024°23'184 4.6
2014-Oct-16 13:21N 40°38' E 022°53'  

Dump ship's entire track history